RYR5606 LMML-EBCI

Flight info

Callsign RYR5606
Flight time 2h 44m
Altitude 38000
Route GZO3B GZO M622 SOPIR DCT MABOX DCT ADEXI DCT ROXAN DCT KISTO DCT KONER DCT AOSTA DCT ORSUD DCT MOLUS DCT GILIR DCT PENDU DCT IXILU DCT GIVOR DCT SORAL DCT IBERA DCT DIK Y37 BATTY BATTY7A
Aircraft B738/M-SDE3/L

Departure

Time 2026-04-28 17:21
Airport Malta International Airport (LMML)

Arrival

Time 2026-04-28 20:05
Airport Brussels South Charleroi Airport (EBCI)
Time Latitude Longitude Altitude Speed Heading
2026-04-28 17:03 35.85497 14.48403 271 ft 0 kts 359°
2026-04-28 17:16 35.85498 14.48402 271 ft 0 kts 352°
2026-04-28 17:16 35.85500 14.48394 271 ft 1 kts 279°
2026-04-28 17:17 35.85487 14.48372 271 ft 3 kts 250°
2026-04-28 17:17 35.85502 14.48327 271 ft 7 kts 316°
2026-04-28 17:17 35.85537 14.48285 271 ft 7 kts 314°
2026-04-28 17:17 35.85570 14.48243 272 ft 7 kts 314°
2026-04-28 17:18 35.85610 14.48214 271 ft 7 kts 344°
2026-04-28 17:18 35.85650 14.48198 273 ft 6 kts 325°
2026-04-28 17:18 35.85658 14.48159 271 ft 5 kts 270°
2026-04-28 17:18 35.85658 14.48121 271 ft 4 kts 270°
2026-04-28 17:19 35.85658 14.48084 271 ft 4 kts 269°
2026-04-28 17:19 35.85658 14.48044 271 ft 6 kts 269°
2026-04-28 17:19 35.85669 14.47980 271 ft 8 kts 275°
2026-04-28 17:19 35.85643 14.47920 272 ft 8 kts 219°
2026-04-28 17:20 35.85598 14.47932 271 ft 6 kts 140°
2026-04-28 17:20 35.85553 14.47990 271 ft 36 kts 135°
2026-04-28 17:20 35.84937 14.48749 260 ft 147 kts 136°
2026-04-28 17:20 35.84128 14.49753 887 ft 165 kts 133°
2026-04-28 17:21 35.83353 14.50713 2124 ft 157 kts 134°
2026-04-28 17:21 35.82320 14.51396 2700 ft 190 kts 169°
2026-04-28 17:21 35.80934 14.51092 3100 ft 221 kts 207°
2026-04-28 17:22 35.79042 14.47807 4376 ft 249 kts 241°
2026-04-28 17:22 35.78468 14.46534 4742 ft 263 kts 241°
2026-04-28 17:22 35.77542 14.44575 5734 ft 265 kts 240°
2026-04-28 17:23 35.76393 14.40368 7676 ft 267 kts 281°
2026-04-28 17:23 35.77167 14.38318 8751 ft 265 kts 305°
2026-04-28 17:23 35.78502 14.36688 9585 ft 276 kts 322°
2026-04-28 17:23 35.80110 14.35352 10450 ft 283 kts 325°
2026-04-28 17:24 35.81845 14.33992 10755 ft 310 kts 326°
2026-04-28 17:24 35.83717 14.32539 11053 ft 333 kts 326°
2026-04-28 17:24 35.85697 14.31001 11793 ft 338 kts 325°
2026-04-28 17:24 35.87689 14.29446 12722 ft 340 kts 324°
2026-04-28 17:25 35.89692 14.27871 13561 ft 344 kts 324°
2026-04-28 17:25 35.93794 14.24622 15054 ft 354 kts 324°
2026-04-28 17:25 35.95872 14.22968 15818 ft 357 kts 324°
2026-04-28 17:26 35.97970 14.21295 16553 ft 362 kts 324°
2026-04-28 17:26 36.00097 14.19597 17249 ft 367 kts 324°
2026-04-28 17:26 36.02252 14.17874 17967 ft 371 kts 324°
2026-04-28 17:26 36.04418 14.16142 18788 ft 369 kts 324°
2026-04-28 17:27 36.06556 14.14434 19725 ft 362 kts 324°
2026-04-28 17:27 36.08651 14.12760 20663 ft 356 kts 324°
2026-04-28 17:27 36.10717 14.11105 21506 ft 353 kts 324°
2026-04-28 17:27 36.12769 14.09456 22289 ft 350 kts 323°
2026-04-28 17:28 36.14806 14.07814 23080 ft 347 kts 323°
2026-04-28 17:28 36.18852 14.04552 24163 ft 356 kts 323°
2026-04-28 17:28 36.20946 14.02865 24266 ft 371 kts 323°
2026-04-28 17:29 36.23154 14.01087 24354 ft 386 kts 323°
2026-04-28 17:29 36.25442 13.99246 24585 ft 396 kts 323°
2026-04-28 17:29 36.27763 13.97380 25048 ft 398 kts 323°
2026-04-28 17:30 36.32399 13.93649 26156 ft 398 kts 322°
2026-04-28 17:30 36.37071 13.89876 27049 ft 402 kts 322°
2026-04-28 17:30 36.39421 13.87974 27490 ft 404 kts 321°
2026-04-28 17:31 36.41783 13.86062 27929 ft 406 kts 321°
2026-04-28 17:31 36.46538 13.82208 28585 ft 414 kts 321°
2026-04-28 17:32 36.51363 13.78269 29490 ft 415 kts 319°
2026-04-28 17:32 36.53724 13.76197 29875 ft 416 kts 318°
2026-04-28 17:32 36.56071 13.74069 30234 ft 417 kts 317°
2026-04-28 17:32 36.58406 13.71933 30620 ft 416 kts 317°
2026-04-28 17:33 36.60739 13.69804 31071 ft 414 kts 317°
2026-04-28 17:33 36.63064 13.67690 31523 ft 413 kts 317°
2026-04-28 17:33 36.65387 13.65586 31930 ft 412 kts 317°
2026-04-28 17:33 36.66924 13.64196 32184 ft 412 kts 317°
2026-04-28 17:34 36.69992 13.61424 32736 ft 411 kts 317°
2026-04-28 17:34 36.72302 13.59339 33138 ft 410 kts 317°
2026-04-28 17:34 36.74606 13.57258 33534 ft 409 kts 317°
2026-04-28 17:34 36.76911 13.55175 33936 ft 408 kts 317°
2026-04-28 17:35 36.79208 13.53097 34283 ft 407 kts 317°
2026-04-28 17:35 36.81502 13.51020 34580 ft 407 kts 317°
2026-04-28 17:35 36.83795 13.48941 34863 ft 408 kts 317°
2026-04-28 17:35 36.86098 13.46850 35062 ft 410 kts 317°
2026-04-28 17:36 36.88405 13.44755 35359 ft 410 kts 317°
2026-04-28 17:36 36.90712 13.42662 35713 ft 408 kts 317°
2026-04-28 17:36 36.93008 13.40575 36016 ft 408 kts 317°
2026-04-28 17:36 36.95305 13.38476 36276 ft 408 kts 317°
2026-04-28 17:37 36.97566 13.36403 36534 ft 409 kts 317°
2026-04-28 17:37 36.99864 13.34297 36793 ft 409 kts 317°
2026-04-28 17:37 37.02238 13.32305 37087 ft 414 kts 325°
2026-04-28 17:37 37.04913 13.30891 37407 ft 424 kts 337°
2026-04-28 17:38 37.07844 13.30209 37882 ft 429 kts 347°
2026-04-28 17:38 37.10832 13.29964 38011 ft 433 kts 349°
2026-04-28 17:38 37.16678 13.28947 38046 ft 412 kts 335°
2026-04-28 17:39 37.19307 13.27668 38045 ft 400 kts 326°
2026-04-28 17:39 37.21652 13.25879 38075 ft 391 kts 317°
2026-04-28 17:40 37.27899 13.19357 38055 ft 396 kts 321°
2026-04-28 17:40 37.32825 13.16020 38065 ft 413 kts 328°
2026-04-28 17:41 37.38174 13.13076 38064 ft 425 kts 330°
2026-04-28 17:41 37.43683 13.10183 38063 ft 431 kts 330°
2026-04-28 17:42 37.49246 13.07253 38052 ft 433 kts 331°
2026-04-28 17:42 37.54733 13.04342 38044 ft 422 kts 330°
2026-04-28 17:43 37.60140 13.01447 38053 ft 422 kts 330°
2026-04-28 17:43 37.65516 12.98556 38061 ft 422 kts 330°
2026-04-28 17:44 37.70934 12.95638 38058 ft 423 kts 330°
2026-04-28 17:44 37.76355 12.92716 38054 ft 424 kts 330°
2026-04-28 17:45 37.81788 12.89783 38060 ft 425 kts 330°
2026-04-28 17:45 37.87225 12.86845 38055 ft 425 kts 330°
2026-04-28 17:46 37.92630 12.83919 38046 ft 425 kts 330°
2026-04-28 17:46 37.98087 12.80960 38064 ft 425 kts 330°
2026-04-28 17:47 38.03528 12.78004 38061 ft 425 kts 330°
2026-04-28 17:47 38.08979 12.75039 38046 ft 426 kts 330°
2026-04-28 17:48 38.14437 12.72064 38058 ft 427 kts 330°
2026-04-28 17:48 38.19895 12.69085 38056 ft 427 kts 330°
2026-04-28 17:49 38.25355 12.66100 38060 ft 427 kts 330°
2026-04-28 17:49 38.30773 12.63133 38053 ft 427 kts 330°
2026-04-28 17:50 38.36227 12.60142 38053 ft 427 kts 330°
2026-04-28 17:50 38.41680 12.57146 38055 ft 426 kts 330°
2026-04-28 17:51 38.47132 12.54145 38063 ft 427 kts 331°
2026-04-28 17:51 38.52596 12.51133 38056 ft 426 kts 331°
2026-04-28 17:52 38.58038 12.48128 38054 ft 426 kts 331°
2026-04-28 17:52 38.66166 12.43632 38051 ft 426 kts 330°
2026-04-28 17:53 38.71599 12.40620 38038 ft 426 kts 331°
2026-04-28 17:53 38.77032 12.37602 38056 ft 425 kts 331°
2026-04-28 17:54 38.82467 12.34578 38041 ft 426 kts 331°
2026-04-28 17:54 38.87909 12.31545 38041 ft 426 kts 331°
2026-04-28 17:55 38.93319 12.28526 38076 ft 426 kts 331°
2026-04-28 17:55 38.98765 12.25481 38048 ft 426 kts 331°
2026-04-28 17:56 39.04204 12.22435 38041 ft 426 kts 331°
2026-04-28 17:56 39.09644 12.19384 38038 ft 426 kts 331°
2026-04-28 17:57 39.15078 12.16330 38049 ft 426 kts 331°
2026-04-28 17:57 39.20474 12.13293 38050 ft 426 kts 331°
2026-04-28 17:58 39.25901 12.10233 38043 ft 425 kts 331°
2026-04-28 17:58 39.31318 12.07174 38047 ft 425 kts 331°
2026-04-28 17:59 39.36741 12.04106 38050 ft 425 kts 331°
2026-04-28 17:59 39.42154 12.01038 38055 ft 425 kts 331°
2026-04-28 18:00 39.47572 11.97963 38046 ft 425 kts 331°
2026-04-28 18:00 39.52989 11.94882 38052 ft 425 kts 331°
2026-04-28 18:01 39.58375 11.91814 38051 ft 425 kts 331°
2026-04-28 18:01 39.63793 11.88723 38049 ft 425 kts 331°
2026-04-28 18:02 39.69211 11.85626 38054 ft 425 kts 332°
2026-04-28 18:02 39.74622 11.82528 38046 ft 425 kts 331°
2026-04-28 18:03 39.80041 11.79420 38050 ft 425 kts 331°
2026-04-28 18:03 39.85431 11.76324 38049 ft 425 kts 331°
2026-04-28 18:04 39.90847 11.73207 38055 ft 425 kts 332°
2026-04-28 18:04 39.96263 11.70084 38046 ft 425 kts 332°
2026-04-28 18:05 40.00759 11.67488 38049 ft 425 kts 332°
2026-04-28 18:05 40.07076 11.63834 38047 ft 425 kts 332°
2026-04-28 18:06 40.12457 11.60716 38050 ft 425 kts 332°
2026-04-28 18:06 40.17865 11.57575 38050 ft 425 kts 332°
2026-04-28 18:07 40.23280 11.54426 38050 ft 425 kts 332°
2026-04-28 18:07 40.28658 11.51293 38047 ft 426 kts 332°
2026-04-28 18:08 40.33171 11.48660 38049 ft 426 kts 332°
2026-04-28 18:08 40.39496 11.44962 38057 ft 426 kts 332°
2026-04-28 18:09 40.44915 11.41789 38040 ft 426 kts 332°
2026-04-28 18:09 40.50320 11.38618 38038 ft 425 kts 331°
2026-04-28 18:10 40.54760 11.36009 38053 ft 424 kts 331°
2026-04-28 18:10 40.60201 11.32807 38051 ft 424 kts 331°
2026-04-28 18:11 40.65586 11.29631 38047 ft 423 kts 332°
2026-04-28 18:11 40.70928 11.26476 38046 ft 423 kts 332°
2026-04-28 18:12 40.76302 11.23296 38052 ft 423 kts 331°
2026-04-28 18:12 40.81671 11.20112 38053 ft 423 kts 331°
2026-04-28 18:13 40.87045 11.16921 38052 ft 423 kts 331°
2026-04-28 18:13 40.92432 11.13716 38051 ft 424 kts 331°
2026-04-28 18:14 40.97785 11.10525 38049 ft 424 kts 331°
2026-04-28 18:14 41.03174 11.07307 38073 ft 425 kts 332°
2026-04-28 18:15 41.08582 11.04073 38052 ft 426 kts 332°
2026-04-28 18:15 41.13986 11.00835 38049 ft 427 kts 332°
2026-04-28 18:16 41.19403 10.97583 38052 ft 427 kts 332°
2026-04-28 18:16 41.24786 10.94345 38048 ft 428 kts 332°
2026-04-28 18:17 41.30221 10.91071 38052 ft 428 kts 332°
2026-04-28 18:17 41.35660 10.87788 38050 ft 429 kts 332°
2026-04-28 18:18 41.41092 10.84503 38048 ft 429 kts 332°
2026-04-28 18:18 41.45613 10.81765 38050 ft 429 kts 332°
2026-04-28 18:19 41.51939 10.77926 38049 ft 429 kts 332°
2026-04-28 18:19 41.57375 10.74620 38049 ft 429 kts 332°
2026-04-28 18:20 41.62809 10.71310 38048 ft 429 kts 332°
2026-04-28 18:20 41.68242 10.67994 38048 ft 429 kts 332°
2026-04-28 18:21 41.73670 10.64675 38057 ft 428 kts 332°
2026-04-28 18:21 41.79061 10.61372 38048 ft 428 kts 332°
2026-04-28 18:22 41.84476 10.58049 38049 ft 428 kts 332°
2026-04-28 18:22 41.89885 10.54722 38044 ft 427 kts 332°
2026-04-28 18:23 41.95288 10.51394 38051 ft 427 kts 332°
2026-04-28 18:23 42.00691 10.48059 38046 ft 427 kts 332°
2026-04-28 18:24 42.05176 10.45286 38046 ft 426 kts 332°
2026-04-28 18:24 42.11479 10.41381 38045 ft 426 kts 332°
2026-04-28 18:25 42.16861 10.38041 38056 ft 426 kts 332°
2026-04-28 18:26 42.24891 10.33044 38045 ft 425 kts 332°
2026-04-28 18:26 42.30264 10.29694 38046 ft 425 kts 332°
2026-04-28 18:27 42.35642 10.26334 38044 ft 425 kts 332°
2026-04-28 18:27 42.41010 10.22973 38043 ft 424 kts 332°
2026-04-28 18:28 42.46344 10.19628 38043 ft 424 kts 332°
2026-04-28 18:28 42.51699 10.16262 38043 ft 424 kts 332°
2026-04-28 18:29 42.57054 10.12891 38050 ft 424 kts 332°
2026-04-28 18:29 42.62420 10.09506 38038 ft 425 kts 331°
2026-04-28 18:30 42.67787 10.06114 38045 ft 426 kts 331°
2026-04-28 18:30 42.73120 10.02737 38043 ft 426 kts 331°
2026-04-28 18:31 42.78505 9.99321 38045 ft 427 kts 331°
2026-04-28 18:31 42.83902 9.95890 38040 ft 428 kts 331°
2026-04-28 18:32 42.89299 9.92454 38039 ft 428 kts 331°
2026-04-28 18:32 42.94710 9.89001 38040 ft 428 kts 331°
2026-04-28 18:33 43.00076 9.85570 38038 ft 428 kts 331°
2026-04-28 18:33 43.05475 9.82112 38034 ft 428 kts 331°
2026-04-28 18:34 43.10875 9.78646 38041 ft 428 kts 331°
2026-04-28 18:34 43.16254 9.75153 38026 ft 427 kts 330°
2026-04-28 18:35 43.21639 9.71687 38038 ft 427 kts 331°
2026-04-28 18:35 43.26992 9.68255 38036 ft 427 kts 331°
2026-04-28 18:36 43.32238 9.64502 38032 ft 423 kts 324°
2026-04-28 18:36 43.37168 9.60103 38028 ft 422 kts 323°
2026-04-28 18:37 43.42058 9.55652 38032 ft 421 kts 323°
2026-04-28 18:37 43.46879 9.51318 38036 ft 421 kts 323°
2026-04-28 18:38 43.51889 9.46854 38036 ft 421 kts 323°
2026-04-28 18:38 43.56808 9.42476 38041 ft 421 kts 323°
2026-04-28 18:39 43.61724 9.38096 38039 ft 420 kts 323°
2026-04-28 18:39 43.66638 9.33707 38047 ft 420 kts 323°
2026-04-28 18:40 43.71508 9.29349 38041 ft 420 kts 323°
2026-04-28 18:40 43.76411 9.24951 38040 ft 420 kts 323°
2026-04-28 18:41 43.81307 9.20552 38044 ft 420 kts 323°
2026-04-28 18:41 43.86205 9.16142 38058 ft 419 kts 323°
2026-04-28 18:42 43.91097 9.11729 38044 ft 420 kts 323°
2026-04-28 18:42 43.95992 9.07305 38037 ft 419 kts 323°
2026-04-28 18:43 44.00886 9.02871 38037 ft 419 kts 323°
2026-04-28 18:43 44.05736 8.98469 38045 ft 419 kts 323°
2026-04-28 18:44 44.10619 8.94029 38052 ft 420 kts 323°
2026-04-28 18:44 44.17962 8.87335 38046 ft 420 kts 323°
2026-04-28 18:45 44.22852 8.82866 38047 ft 420 kts 323°
2026-04-28 18:45 44.27731 8.78398 38048 ft 420 kts 323°
2026-04-28 18:46 44.32587 8.73942 38026 ft 420 kts 323°
2026-04-28 18:46 44.37471 8.69451 38021 ft 420 kts 323°
2026-04-28 18:47 44.42352 8.64954 38029 ft 420 kts 323°
2026-04-28 18:47 44.47236 8.60445 38031 ft 420 kts 323°
2026-04-28 18:48 44.52119 8.55927 38030 ft 420 kts 323°
2026-04-28 18:48 44.56998 8.51404 38033 ft 420 kts 323°
2026-04-28 18:49 44.60235 8.48399 38039 ft 421 kts 323°
2026-04-28 18:49 44.66739 8.42347 38046 ft 421 kts 323°
2026-04-28 18:50 44.71613 8.37800 38039 ft 421 kts 323°
2026-04-28 18:50 44.76500 8.33233 38047 ft 421 kts 323°
2026-04-28 18:51 44.81376 8.28666 38044 ft 421 kts 322°
2026-04-28 18:51 44.86257 8.24085 38038 ft 421 kts 322°
2026-04-28 18:52 44.91131 8.19501 38059 ft 421 kts 322°
2026-04-28 18:52 44.95976 8.14936 38045 ft 421 kts 322°
2026-04-28 18:53 45.00862 8.10321 38041 ft 422 kts 322°
2026-04-28 18:53 45.05743 8.05703 38052 ft 421 kts 322°
2026-04-28 18:54 45.10575 8.01121 38065 ft 421 kts 322°
2026-04-28 18:54 45.15446 7.96491 38054 ft 421 kts 322°
2026-04-28 18:55 45.19488 7.92644 38048 ft 421 kts 322°
2026-04-28 18:55 45.25160 7.87232 38053 ft 420 kts 322°
2026-04-28 18:56 45.30005 7.82599 38052 ft 419 kts 322°
2026-04-28 18:56 45.34845 7.77961 38062 ft 419 kts 322°
2026-04-28 18:57 45.39652 7.73345 38073 ft 419 kts 322°
2026-04-28 18:57 45.44485 7.68693 38063 ft 419 kts 322°
2026-04-28 18:58 45.49311 7.64040 38076 ft 418 kts 322°
2026-04-28 18:58 45.53311 7.60175 38101 ft 418 kts 322°
2026-04-28 18:59 45.58134 7.55505 38070 ft 419 kts 322°
2026-04-28 18:59 45.62955 7.50828 38085 ft 418 kts 322°
2026-04-28 19:00 45.67770 7.46146 38108 ft 418 kts 322°
2026-04-28 19:00 45.72577 7.41463 38045 ft 417 kts 322°
2026-04-28 19:01 45.77374 7.36780 38062 ft 418 kts 321°
2026-04-28 19:01 45.82168 7.32048 38059 ft 419 kts 321°
2026-04-28 19:02 45.86885 7.27259 38057 ft 416 kts 320°
2026-04-28 19:02 45.91623 7.22442 38067 ft 421 kts 321°
2026-04-28 19:03 45.96445 7.17544 38077 ft 424 kts 321°
2026-04-28 19:03 46.01269 7.12608 38098 ft 427 kts 320°
2026-04-28 19:04 46.06021 7.07723 38081 ft 427 kts 320°
2026-04-28 19:04 46.10935 7.02662 38082 ft 428 kts 320°
2026-04-28 19:05 46.15744 6.97698 38105 ft 427 kts 320°
2026-04-28 19:05 46.20611 6.92666 38078 ft 427 kts 320°
2026-04-28 19:06 46.25399 6.87705 38068 ft 424 kts 320°
2026-04-28 19:06 46.30177 6.82743 38057 ft 422 kts 320°
2026-04-28 19:07 46.34931 6.77793 38049 ft 419 kts 320°
2026-04-28 19:07 46.39653 6.72867 38055 ft 417 kts 320°
2026-04-28 19:08 46.44378 6.67981 38041 ft 417 kts 323°
2026-04-28 19:08 46.49518 6.64119 38048 ft 420 kts 330°
2026-04-28 19:09 46.54818 6.60498 38061 ft 421 kts 330°
2026-04-28 19:09 46.60116 6.56826 38052 ft 422 kts 330°
2026-04-28 19:10 46.65420 6.53091 38055 ft 423 kts 329°
2026-04-28 19:10 46.70698 6.49350 38057 ft 425 kts 329°
2026-04-28 19:11 46.76020 6.45569 38056 ft 426 kts 329°
2026-04-28 19:11 46.81359 6.41768 38076 ft 428 kts 329°
2026-04-28 19:12 46.86714 6.37948 38075 ft 429 kts 329°
2026-04-28 19:12 46.92081 6.34111 38061 ft 429 kts 329°
2026-04-28 19:13 46.97441 6.30270 38055 ft 429 kts 329°
2026-04-28 19:13 47.02784 6.26433 38066 ft 429 kts 329°
2026-04-28 19:14 47.08117 6.22598 38058 ft 428 kts 329°
2026-04-28 19:14 47.13474 6.18757 38044 ft 428 kts 329°
2026-04-28 19:15 47.18827 6.14911 38044 ft 428 kts 329°
2026-04-28 19:15 47.23268 6.11711 38055 ft 428 kts 329°
2026-04-28 19:16 47.29537 6.07185 38046 ft 429 kts 329°
2026-04-28 19:16 47.35116 6.03958 38049 ft 438 kts 342°
2026-04-28 19:17 47.41262 6.03216 38052 ft 447 kts 356°
2026-04-28 19:17 47.47466 6.03457 38047 ft 449 kts 357°
2026-04-28 19:18 47.53719 6.03675 38037 ft 450 kts 356°
2026-04-28 19:18 47.59988 6.03817 38037 ft 451 kts 356°
2026-04-28 19:19 47.66266 6.03941 38058 ft 451 kts 356°
2026-04-28 19:19 47.72552 6.04080 38043 ft 452 kts 358°
2026-04-28 19:20 47.78812 6.05666 38053 ft 459 kts 10°
2026-04-28 19:20 47.85006 6.08098 38040 ft 459 kts 10°
2026-04-28 19:21 47.91183 6.10520 38039 ft 458 kts 10°
2026-04-28 19:21 47.97321 6.12864 38047 ft 457 kts
2026-04-28 19:22 48.02439 6.14798 38041 ft 456 kts
2026-04-28 19:22 48.09620 6.17512 38062 ft 455 kts
2026-04-28 19:23 48.15723 6.19827 38043 ft 454 kts
2026-04-28 19:23 48.21850 6.22159 38046 ft 454 kts
2026-04-28 19:24 48.27972 6.24496 38066 ft 453 kts
2026-04-28 19:24 48.34085 6.26834 38045 ft 453 kts
2026-04-28 19:25 48.40179 6.29171 38055 ft 452 kts
2026-04-28 19:25 48.46236 6.31499 38051 ft 452 kts
2026-04-28 19:26 48.52333 6.33849 38074 ft 451 kts 10°
2026-04-28 19:26 48.58418 6.36200 38072 ft 451 kts 10°
2026-04-28 19:27 48.64502 6.38554 38077 ft 451 kts
2026-04-28 19:27 48.70651 6.39818 38087 ft 444 kts 359°
2026-04-28 19:28 48.76825 6.40319 38071 ft 444 kts 358°
2026-04-28 19:28 48.82968 6.40862 38074 ft 445 kts 359°
2026-04-28 19:29 48.88145 6.41380 38076 ft 445 kts 359°
2026-04-28 19:29 48.95335 6.42128 38076 ft 446 kts 360°
2026-04-28 19:30 49.01528 6.42773 38076 ft 446 kts 360°
2026-04-28 19:30 49.07727 6.43417 38078 ft 446 kts 359°
2026-04-28 19:31 49.13858 6.42949 38085 ft 437 kts 343°
2026-04-28 19:31 49.19722 6.40521 38082 ft 436 kts 341°
2026-04-28 19:32 49.25562 6.38007 38089 ft 436 kts 341°
2026-04-28 19:32 49.31392 6.35563 38103 ft 437 kts 341°
2026-04-28 19:33 49.37258 6.33132 38120 ft 437 kts 342°
2026-04-28 19:33 49.43134 6.30695 38122 ft 437 kts 342°
2026-04-28 19:34 49.49013 6.28248 38122 ft 437 kts 341°
2026-04-28 19:34 49.54844 6.25837 38121 ft 437 kts 342°
2026-04-28 19:35 49.60730 6.23440 38138 ft 436 kts 343°
2026-04-28 19:35 49.66599 6.21040 38124 ft 437 kts 342°
2026-04-28 19:36 49.69547 6.19830 37769 ft 437 kts 342°
2026-04-28 19:36 49.72459 6.18634 37424 ft 430 kts 342°
2026-04-28 19:36 49.75328 6.17454 37083 ft 424 kts 341°
2026-04-28 19:36 49.78167 6.16284 36695 ft 420 kts 341°
2026-04-28 19:37 49.80976 6.15123 36335 ft 415 kts 341°
2026-04-28 19:37 49.82822 6.14360 36088 ft 413 kts 341°
2026-04-28 19:37 49.86513 6.12835 35594 ft 408 kts 340°
2026-04-28 19:37 49.89258 6.11794 35359 ft 403 kts 342°
2026-04-28 19:38 49.91982 6.10841 34990 ft 400 kts 342°
2026-04-28 19:38 49.94670 6.09924 34674 ft 405 kts 341°
2026-04-28 19:38 49.97524 6.08937 34321 ft 425 kts 341°
2026-04-28 19:38 50.00370 6.07941 33892 ft 443 kts 341°
2026-04-28 19:39 50.03459 6.06860 33427 ft 443 kts 341°
2026-04-28 19:39 50.06446 6.05818 33027 ft 437 kts 342°
2026-04-28 19:39 50.09394 6.04788 32628 ft 432 kts 342°
2026-04-28 19:39 50.12315 6.03762 32259 ft 427 kts 342°
2026-04-28 19:40 50.15199 6.02742 31870 ft 423 kts 343°
2026-04-28 19:40 50.18060 6.01727 31495 ft 420 kts 343°
2026-04-28 19:40 50.20859 6.00730 31127 ft 418 kts 343°
2026-04-28 19:40 50.23735 5.99704 30752 ft 416 kts 343°
2026-04-28 19:41 50.26551 5.98699 30388 ft 414 kts 343°
2026-04-28 19:41 50.29320 5.97710 30006 ft 413 kts 345°
2026-04-28 19:41 50.32156 5.96697 29558 ft 411 kts 345°
2026-04-28 19:41 50.34901 5.95714 29192 ft 409 kts 345°
2026-04-28 19:42 50.37680 5.94718 28797 ft 408 kts 345°
2026-04-28 19:42 50.40391 5.93745 28411 ft 410 kts 345°
2026-04-28 19:42 50.43256 5.92714 28003 ft 416 kts 346°
2026-04-28 19:42 50.45131 5.92039 27742 ft 418 kts 346°
2026-04-28 19:43 50.48873 5.90693 27206 ft 414 kts 345°
2026-04-28 19:43 50.51703 5.89673 26798 ft 410 kts 346°
2026-04-28 19:43 50.54437 5.88687 26416 ft 406 kts 346°
2026-04-28 19:43 50.57147 5.87709 26028 ft 403 kts 347°
2026-04-28 19:44 50.59909 5.86710 25630 ft 400 kts 346°
2026-04-28 19:44 50.62584 5.85558 25225 ft 398 kts 336°
2026-04-28 19:44 50.64828 5.83271 24861 ft 394 kts 317°
2026-04-28 19:44 50.66608 5.79897 24444 ft 389 kts 300°
2026-04-28 19:45 50.67870 5.76135 23984 ft 386 kts 297°
2026-04-28 19:45 50.69062 5.72341 23295 ft 387 kts 296°
2026-04-28 19:45 50.70246 5.68529 22737 ft 384 kts 296°
2026-04-28 19:45 50.71421 5.64765 22308 ft 380 kts 296°
2026-04-28 19:46 50.72197 5.62297 22048 ft 378 kts 297°
2026-04-28 19:46 50.73363 5.58610 21661 ft 373 kts 297°
2026-04-28 19:46 50.74916 5.53727 21185 ft 379 kts 298°
2026-04-28 19:46 50.76107 5.49987 20814 ft 383 kts 297°
2026-04-28 19:47 50.76915 5.47451 20554 ft 382 kts 298°
2026-04-28 19:47 50.78109 5.43699 20178 ft 381 kts 297°
2026-04-28 19:47 50.79291 5.39979 19804 ft 379 kts 297°
2026-04-28 19:47 50.80455 5.36311 19445 ft 376 kts 298°
2026-04-28 19:48 50.81626 5.32615 19082 ft 374 kts 297°
2026-04-28 19:48 50.82787 5.28942 18696 ft 374 kts 298°
2026-04-28 19:48 50.83948 5.25266 18309 ft 373 kts 298°
2026-04-28 19:48 50.85107 5.21596 17909 ft 371 kts 297°
2026-04-28 19:49 50.86257 5.17943 17530 ft 369 kts 297°
2026-04-28 19:49 50.87344 5.14268 17133 ft 372 kts 291°
2026-04-28 19:49 50.87940 5.10156 16651 ft 391 kts 277°
2026-04-28 19:49 50.88141 5.05863 16233 ft 390 kts 274°
2026-04-28 19:50 50.88437 4.97368 15481 ft 383 kts 274°
2026-04-28 19:50 50.88595 4.93149 15107 ft 383 kts 274°
2026-04-28 19:50 50.88762 4.88970 14745 ft 386 kts 275°
2026-04-28 19:51 50.88939 4.84739 14367 ft 383 kts 275°
2026-04-28 19:51 50.89117 4.80546 13966 ft 379 kts 275°
2026-04-28 19:51 50.89294 4.76403 13566 ft 375 kts 275°
2026-04-28 19:51 50.89468 4.72309 13185 ft 372 kts 275°
2026-04-28 19:52 50.89641 4.68223 12812 ft 372 kts 274°
2026-04-28 19:52 50.89812 4.64123 12448 ft 376 kts 274°
2026-04-28 19:52 50.89981 4.59987 12076 ft 373 kts 273°
2026-04-28 19:52 50.89733 4.55944 11701 ft 368 kts 252°
2026-04-28 19:53 50.88582 4.52387 11400 ft 360 kts 233°
2026-04-28 19:53 50.86851 4.49616 11052 ft 350 kts 216°
2026-04-28 19:53 50.84932 4.47321 10719 ft 342 kts 215°
2026-04-28 19:53 50.83028 4.45118 10379 ft 336 kts 213°
2026-04-28 19:54 50.81170 4.42972 10216 ft 325 kts 214°
2026-04-28 19:54 50.79386 4.40889 10149 ft 312 kts 215°
2026-04-28 19:54 50.77686 4.38890 10121 ft 298 kts 214°
2026-04-28 19:54 50.76053 4.36965 10018 ft 288 kts 214°
2026-04-28 19:55 50.74444 4.35064 9694 ft 288 kts 214°
2026-04-28 19:55 50.72843 4.33175 9402 ft 285 kts 214°
2026-04-28 19:55 50.71262 4.31311 9113 ft 283 kts 214°
2026-04-28 19:55 50.69677 4.29464 8777 ft 282 kts 210°
2026-04-28 19:56 50.67932 4.28217 8426 ft 277 kts 193°
2026-04-28 19:56 50.66094 4.27368 8175 ft 274 kts 192°
2026-04-28 19:56 50.64260 4.26534 7863 ft 274 kts 193°
2026-04-28 19:56 50.62438 4.25694 7575 ft 271 kts 193°
2026-04-28 19:57 50.60627 4.24848 7247 ft 272 kts 193°
2026-04-28 19:57 50.58819 4.23995 6968 ft 271 kts 193°
2026-04-28 19:57 50.57016 4.23139 6712 ft 269 kts 193°
2026-04-28 19:57 50.55251 4.22297 6372 ft 263 kts 194°
2026-04-28 19:58 50.53511 4.21464 5936 ft 261 kts 193°
2026-04-28 19:58 50.51788 4.20650 5567 ft 256 kts 193°
2026-04-28 19:58 50.50096 4.19843 5210 ft 252 kts 193°
2026-04-28 19:58 50.48454 4.19053 5044 ft 237 kts 192°
2026-04-28 19:59 50.46961 4.18336 4897 ft 219 kts 191°
2026-04-28 19:59 50.45529 4.17654 4566 ft 213 kts 188°
2026-04-28 19:59 50.44140 4.17704 4298 ft 194 kts 152°
2026-04-28 19:59 50.42960 4.18563 4127 ft 183 kts 148°
2026-04-28 20:00 50.41829 4.19375 3943 ft 175 kts 148°
2026-04-28 20:00 50.40740 4.20163 3670 ft 169 kts 146°
2026-04-28 20:00 50.39968 4.21376 3594 ft 155 kts 104°
2026-04-28 20:00 50.40019 4.23021 3488 ft 157 kts 83°
2026-04-28 20:01 50.40233 4.24732 3284 ft 158 kts 76°
2026-04-28 20:01 50.40585 4.26349 3073 ft 156 kts 72°
2026-04-28 20:01 50.40985 4.27897 2869 ft 150 kts 71°
2026-04-28 20:01 50.41391 4.29366 2684 ft 145 kts 70°
2026-04-28 20:02 50.41801 4.30815 2491 ft 147 kts 69°
2026-04-28 20:02 50.42217 4.32268 2293 ft 142 kts 68°
2026-04-28 20:02 50.42600 4.33591 2136 ft 127 kts 68°
2026-04-28 20:02 50.42958 4.34830 1943 ft 121 kts 66°
2026-04-28 20:03 50.43301 4.36008 1790 ft 118 kts 66°
2026-04-28 20:03 50.43661 4.37241 1646 ft 130 kts 66°
2026-04-28 20:03 50.44041 4.38545 1416 ft 132 kts 64°
2026-04-28 20:03 50.44416 4.39847 1270 ft 131 kts 60°
2026-04-28 20:04 50.44809 4.41205 1037 ft 142 kts 65°
2026-04-28 20:04 50.45198 4.42596 853 ft 134 kts 61°
2026-04-28 20:04 50.45594 4.43931 681 ft 135 kts 58°
2026-04-28 20:04 50.45966 4.45234 593 ft 121 kts 61°
2026-04-28 20:05 50.46254 4.46211 589 ft 69 kts 65°
2026-04-28 20:05 50.46378 4.46635 589 ft 30 kts 65°
2026-04-28 20:05 50.46480 4.46882 593 ft 20 kts 15°
2026-04-28 20:05 50.46550 4.46864 593 ft 8 kts 332°
2026-04-28 20:06 50.46599 4.46831 592 ft 8 kts 338°
2026-04-28 20:06 50.46638 4.46803 590 ft 6 kts 334°
2026-04-28 20:06 50.46685 4.46775 588 ft 8 kts 356°
2026-04-28 20:06 50.46733 4.46835 586 ft 10 kts 61°
2026-04-28 20:07 50.46764 4.46943 585 ft 11 kts 65°
2026-04-28 20:07 50.46786 4.47016 584 ft 11 kts 64°
2026-04-28 20:07 50.46834 4.47058 584 ft 5 kts 334°
2026-04-28 20:07 50.46855 4.47042 584 ft 0 kts 335°